• In Netherlands
  • List of Countries
  • For 7 days
  • Water Temperature
  • Satellite Maps
  • Weather Map
  • Weather Widgets
  • user-avatar
    Login

    Hourly Weather Kandi

    Today, 21 January, Saturday

    Time Temperature Precipitation Wind Pressure Humidity
    00:00 +24°C° 0 mm 1 mps 735 mmHg 22%
    01:00 +24°C° 0 mm 1 mps 735 mmHg 23%
    02:00 +23°C° 0 mm 1 mps 735 mmHg 23%
    03:00 +23°C° 0 mm 1 mps 734 mmHg 23%
    04:00 +23°C° 0 mm 1 mps 735 mmHg 24%
    05:00 +22°C° 0 mm 1 mps 735 mmHg 24%
    06:00 +22°C° 0 mm 1 mps 735 mmHg 24%
    07:00 +26°C° 0 mm 1 mps 736 mmHg 20%
    08:00 +31°C° 0 mm 1 mps 736 mmHg 16%
    09:00 +35°C° 0 mm 1 mps 737 mmHg 12%
    10:00 +37°C° 0 mm 1 mps 737 mmHg 10%
    11:00 +41°C° 0 mm 1 mps 736 mmHg 9%
    12:00 +44°C° 0 mm 1 mps 736 mmHg 7%
    13:00 +44°C° 0 mm 1 mps 735 mmHg 7%
    14:00 +45°C° 0 mm 1 mps 734 mmHg 7%
    15:00 +45°C° 0 mm 1 mps 734 mmHg 7%
    16:00 +40°C° 0 mm 1 mps 733 mmHg 10%
    17:00 +33°C° 0 mm 1 mps 733 mmHg 13%
    18:00 +28°C° 0 mm 1 mps 733 mmHg 17%
    19:00 +27°C° 0 mm 1 mps 734 mmHg 17%
    20:00 +27°C° 0 mm 1 mps 734 mmHg 18%
    21:00 +27°C° 0 mm 1 mps 735 mmHg 18%
    22:00 +26°C° 0 mm 1 mps 735 mmHg 19%
    23:00 +25°C° 0 mm 1 mps 735 mmHg 21%

    Tomorrow, 22 January, Sunday

    Time Temperature Precipitation Wind Pressure Humidity
    00:00 +24°C° 0 mm 1 mps 735 mmHg 22%
    01:00 +24°C° 0 mm 1 mps 735 mmHg 23%
    02:00 +23°C° 0 mm 1 mps 735 mmHg 25%
    03:00 +23°C° 0 mm 1 mps 735 mmHg 26%
    04:00 +22°C° 0 mm 1 mps 735 mmHg 29%
    05:00 +22°C° 0 mm 1 mps 736 mmHg 32%
    06:00 +21°C° 0 mm 1 mps 736 mmHg 36%
    07:00 +25°C° 0 mm 1 mps 737 mmHg 30%
    08:00 +29°C° 0 mm 1 mps 737 mmHg 25%
    09:00 +32°C° 0 mm 2 mps 738 mmHg 19%
    10:00 +36°C° 0 mm 2 mps 738 mmHg 16%
    11:00 +38°C° 0 mm 2 mps 737 mmHg 12%
    12:00 +40°C° 0 mm 2 mps 737 mmHg 9%
    13:00 +41°C° 0 mm 2 mps 736 mmHg 9%
    14:00 +41°C° 0 mm 2 mps 735 mmHg 8%
    15:00 +42°C° 0 mm 2 mps 734 mmHg 8%
    16:00 +38°C° 0 mm 2 mps 734 mmHg 11%
    17:00 +35°C° 0 mm 2 mps 734 mmHg 13%
    18:00 +30°C° 0 mm 2 mps 734 mmHg 16%
    19:00 +30°C° 0 mm 2 mps 735 mmHg 16%
    20:00 +29°C° 0 mm 2 mps 735 mmHg 17%
    21:00 +28°C° 0 mm 2 mps 736 mmHg 18%
    22:00 +28°C° 0 mm 2 mps 736 mmHg 18%
    23:00 +27°C° 0 mm 2 mps 736 mmHg 19%

    Day after tomorrow, 23 January, Monday

    Time Temperature Precipitation Wind Pressure Humidity
    00:00 +26°C° 0 mm 2 mps 736 mmHg 20%
    01:00 +25°C° 0 mm 2 mps 736 mmHg 21%
    02:00 +24°C° 0 mm 2 mps 736 mmHg 22%
    03:00 +23°C° 0 mm 2 mps 736 mmHg 23%
    04:00 +22°C° 0 mm 1 mps 736 mmHg 26%
    05:00 +20°C° 0 mm 1 mps 737 mmHg 28%
    06:00 +19°C° 0 mm 1 mps 737 mmHg 30%
    07:00 +23°C° 0 mm 1 mps 738 mmHg 25%
    08:00 +27°C° 0 mm 2 mps 739 mmHg 20%
    09:00 +31°C° 0 mm 2 mps 740 mmHg 14%
    10:00 +34°C° 0 mm 2 mps 739 mmHg 13%
    11:00 +36°C° 0 mm 3 mps 739 mmHg 11%
    12:00 +38°C° 0 mm 3 mps 738 mmHg 10%
    13:00 +39°C° 0 mm 3 mps 737 mmHg 9%
    14:00 +40°C° 0 mm 3 mps 736 mmHg 9%
    15:00 +40°C° 0 mm 2 mps 735 mmHg 8%
    16:00 +37°C° 0 mm 2 mps 735 mmHg 11%
    17:00 +34°C° 0 mm 2 mps 735 mmHg 13%
    18:00 +30°C° 0 mm 2 mps 736 mmHg 15%
    19:00 +29°C° 0 mm 2 mps 736 mmHg 15%
    20:00 +28°C° 0 mm 2 mps 737 mmHg 15%
    21:00 +27°C° 0 mm 2 mps 738 mmHg 16%
    22:00 +27°C° 0 mm 2 mps 738 mmHg 16%
    23:00 +26°C° 0 mm 2 mps 738 mmHg 16%

    24 January, Tuesday

    Time Temperature Precipitation Wind Pressure Humidity
    00:00 +25°C° 0 mm 2 mps 737 mmHg 16%
    01:00 +25°C° 0 mm 2 mps 737 mmHg 16%
    02:00 +24°C° 0 mm 2 mps 737 mmHg 17%
    03:00 +24°C° 0 mm 2 mps 737 mmHg 17%
    04:00 +21°C° 0 mm 2 mps 737 mmHg 19%
    05:00 +21°C° 0 mm 1 mps 737 mmHg 21%
    06:00 +19°C° 0 mm 1 mps 738 mmHg 23%
    07:00 +23°C° 0 mm 1 mps 738 mmHg 18%
    08:00 +26°C° 0 mm 1 mps 739 mmHg 14%
    09:00 +29°C° 0 mm 2 mps 740 mmHg 10%
    10:00 +32°C° 0 mm 2 mps 739 mmHg 9%
    11:00 +36°C° 0 mm 2 mps 739 mmHg 8%
    12:00 +39°C° 0 mm 2 mps 738 mmHg 7%
    13:00 +39°C° 0 mm 2 mps 737 mmHg 7%
    14:00 +40°C° 0 mm 2 mps 736 mmHg 7%
    15:00 +41°C° 0 mm 2 mps 735 mmHg 7%
    16:00 +37°C° 0 mm 2 mps 735 mmHg 9%
    17:00 +34°C° 0 mm 2 mps 736 mmHg 11%
    18:00 +30°C° 0 mm 2 mps 736 mmHg 12%
    19:00 +29°C° 0 mm 2 mps 736 mmHg 13%
    20:00 +28°C° 0 mm 2 mps 737 mmHg 13%
    21:00 +27°C° 0 mm 2 mps 738 mmHg 14%
    22:00 +26°C° 0 mm 2 mps 738 mmHg 14%
    23:00 +25°C° 0 mm 2 mps 737 mmHg 14%

    25 January, Wednesday

    Time Temperature Precipitation Wind Pressure Humidity
    00:00 +25°C° 0 mm 2 mps 737 mmHg 15%
    01:00 +24°C° 0 mm 2 mps 737 mmHg 14%
    02:00 +23°C° 0 mm 2 mps 737 mmHg 14%
    03:00 +23°C° 0 mm 2 mps 736 mmHg 14%
    04:00 +21°C° 0 mm 2 mps 737 mmHg 13%
    05:00 +20°C° 0 mm 2 mps 737 mmHg 13%
    06:00 +19°C° 0 mm 2 mps 737 mmHg 12%
    07:00 +23°C° 0 mm 2 mps 738 mmHg 10%
    08:00 +26°C° 0 mm 2 mps 739 mmHg 7%
    09:00 +29°C° 0 mm 2 mps 740 mmHg 5%
    10:00 +31°C° 0 mm 2 mps 739 mmHg 5%
    11:00 +35°C° 0 mm 2 mps 739 mmHg 5%
    12:00 +38°C° 0 mm 3 mps 738 mmHg 4%
    13:00 +39°C° 0 mm 2 mps 737 mmHg 5%
    14:00 +39°C° 0 mm 2 mps 736 mmHg 5%
    15:00 +40°C° 0 mm 2 mps 736 mmHg 5%
    16:00 +37°C° 0 mm 2 mps 736 mmHg 7%
    17:00 +32°C° 0 mm 2 mps 736 mmHg 8%
    18:00 +29°C° 0 mm 2 mps 736 mmHg 10%
    19:00 +28°C° 0 mm 2 mps 736 mmHg 11%
    20:00 +27°C° 0 mm 2 mps 737 mmHg 11%
    21:00 +26°C° 0 mm 2 mps 738 mmHg 11%
    22:00 +26°C° 0 mm 2 mps 737 mmHg 12%
    23:00 +25°C° 0 mm 2 mps 737 mmHg 12%

    26 January, Thursday

    Time Temperature Precipitation Wind Pressure Humidity
    00:00 +25°C° 0 mm 2 mps 737 mmHg 13%
    01:00 +24°C° 0 mm 2 mps 737 mmHg 13%
    02:00 +23°C° 0 mm 2 mps 737 mmHg 13%
    03:00 +23°C° 0 mm 2 mps 737 mmHg 13%
    04:00 +21°C° 0 mm 2 mps 737 mmHg 12%
    05:00 +21°C° 0 mm 2 mps 737 mmHg 11%
    06:00 +20°C° 0 mm 2 mps 738 mmHg 11%
    07:00 +24°C° 0 mm 3 mps 738 mmHg 9%
    08:00 +27°C° 0 mm 3 mps 739 mmHg 8%
    09:00 +29°C° 0 mm 3 mps 739 mmHg 7%
    10:00 +34°C° 0 mm 3 mps 739 mmHg 7%
    11:00 +37°C° 0 mm 3 mps 738 mmHg 6%
    12:00 +40°C° 0 mm 3 mps 738 mmHg 6%
    13:00 +40°C° 0 mm 3 mps 737 mmHg 6%
    14:00 +42°C° 0 mm 3 mps 736 mmHg 6%
    15:00 +42°C° 0 mm 2 mps 735 mmHg 6%
    16:00 +38°C° 0 mm 2 mps 735 mmHg 8%
    17:00 +34°C° 0 mm 2 mps 735 mmHg 11%
    18:00 +29°C° 0 mm 2 mps 736 mmHg 13%
    19:00 +28°C° 0 mm 2 mps 736 mmHg 13%
    20:00 +27°C° 0 mm 2 mps 737 mmHg 14%
    21:00 +27°C° 0 mm 2 mps 737 mmHg 15%
    22:00 +26°C° 0 mm 2 mps 737 mmHg 15%
    23:00 +26°C° 0 mm 2 mps 737 mmHg 15%
    Show more